Theta_e
307 307 307 307 307 305 301 290 287 298 297 286 281 278 286 292 291 294 292 290 287 285 285 283 283 283 287 293 290 285 288 283 279 282 288 290 287 284 283 278 277 278 278 279
307 308 308 306 307 305 300 292 290 297 294 277 277 284 288 290 290 290 290 289 290 289 284 282 285 286 292 291 289 285 286 281 277 278 283 287 284 286 285 284 282 279 277 280
308 308 308 308 307 305 299 293 283 287 288 286 282 285 287 286 293 291 292 289 290 287 287 288 285 285 290 291 291 296 291 281 279 274 279 283 281 285 287 285 279 280 281 284
308 308 308 308 307 305 295 288 284 287 280 282 283 287 288 287 287 292 291 288 289 288 285 285 285 286 288 291 293 290 288 282 282 284 285 285 284 284 285 283 285 281 284 285
307 307 307 308 308 303 292 283 283 286 283 285 284 286 285 287 289 289 287 287 289 290 286 287 284 287 288 287 290 288 287 283 283 282 285 285 283 285 286 286 286 286 287 287
307 307 307 308 308 300 290 291 288 287 284 282 280 282 286 287 289 291 292 291 289 288 290 293 292 293 292 291 290 287 287 282 280 276 284 284 278 284 285 286 288 287 284 290
306 306 307 307 308 303 298 295 293 288 281 282 283 286 287 285 288 287 291 291 290 293 296 293 292 291 291 291 290 292 288 285 283 275 279 270 283 292 293 290 290 291 291 293
305 305 305 306 307 307 299 298 294 290 285 285 285 287 287 288 290 290 291 292 294 292 288 286 284 284 289 290 287 290 291 287 281 276 274 281 286 291 291 289 287 292 291 293
305 305 305 305 306 307 302 299 299 293 287 284 289 285 285 283 287 289 291 294 293 289 283 280 279 279 284 283 287 289 290 290 283 281 275 273 287 293 296 296 284 300 298 295
304 304 305 305 306 306 305 299 299 295 288 290 288 287 283 288 288 287 291 292 289 288 282 279 278 279 287 283 283 284 285 285 281 281 278 282 291 293 294 285 285 301 302 302
303 304 304 306 306 306 304 301 299 296 290 291 294 292 288 287 289 287 289 289 285 285 282 283 282 281 284 285 287 284 284 282 282 283 279 277 292 290 288 295 301 303 302 301
303 303 304 304 305 306 306 298 301 300 293 292 297 297 298 295 294 292 293 292 290 291 286 284 287 284 286 285 282 288 282 284 283 284 284 290 289 288 293 294 293 304 304 306
302 303 303 304 304 305 305 300 301 297 293 292 287 289 294 296 296 298 290 293 293 293 296 290 289 283 287 283 285 285 289 292 286 286 285 286 291 301 300 302 304 305 306 304
301 302 303 303 304 305 305 299 301 297 294 286 287 296 294 299 297 295 296 296 297 295 295 291 289 286 292 288 290 288 292 293 291 288 290 295 297 301 302 303 304 304 305 304
301 301 302 302 302 303 302 300 301 301 293 287 288 293 295 297 297 297 297 297 296 294 291 290 288 291 293 291 289 290 295 292 289 287 296 295 296 302 303 302 302 303 303 302
300 301 302 302 303 303 300 294 300 302 299 290 286 292 293 295 299 297 296 298 297 296 293 292 291 293 293 286 284 292 296 298 298 295 300 300 301 303 303 301 302 303 302 302
301 302 302 302 303 301 296 292 299 302 300 291 289 285 291 296 296 295 294 297 298 297 296 293 288 289 293 288 283 292 295 297 297 299 299 296 298 298 302 302 302 303 302 303
303 302 303 304 305 303 298 301 303 302 297 296 289 286 287 296 295 293 294 295 297 297 296 295 290 289 287 284 290 294 294 296 296 297 298 296 299 299 299 301 301 299 299 300
301 302 304 300 297 296 300 308 307 303 298 292 291 283 279 293 296 294 295 297 292 296 293 290 288 284 282 288 290 291 293 292 294 296 296 296 297 298 298 297 296 295 297 298
299 295 296 297 296 303 304 303 298 295 296 297 292 292 285 289 289 289 289 292 289 287 288 291 282 283 290 292 294 294 295 296 294 294 293 295 294 297 296 296 296 295 295 296
287 283 289 292 299 297 298 293 292 290 288 290 291 291 288 291 285 284 289 284 285 281 284 286 282 280 289 294 295 297 296 297 297 296 295 295 296 295 295 296 296 295 295 295
289 289 294 293 292 289 290 287 291 290 286 290 291 292 291 289 291 288 289 283 283 283 288 284 281 287 292 295 296 295 295 297 297 297 296 296 296 296 296 296 295 295 294 294
291 292 290 291 290 279 284 280 285 289 295 297 296 292 296 294 294 288 284 283 280 286 279 282 284 290 294 295 296 295 295 297 298 298 298 297 297 297 296 295 295 294 293 294
286 287 283 286 280 283 283 284 287 296 296 294 294 295 294 296 291 288 284 286 283 276 277 279 286 291 294 295 296 295 294 297 297 297 297 297 296 295 296 296 295 293 292 293
282 286 280 282 286 287 290 294 294 295 293 292 289 292 293 291 290 289 284 283 277 278 278 281 288 292 295 296 297 295 294 295 296 295 296 296 296 295 295 295 294 294 293 292
284 283 283 285 285 285 286 286 287 289 288 288 290 288 288 288 287 284 284 280 277 280 282 287 290 294 296 297 298 298 299 296 296 295 297 297 297 296 295 295 294 293 292 291
284 283 285 285 285 285 286 287 287 287 286 284 287 285 285 290 286 286 286 281 282 285 288 289 292 294 296 297 299 301 299 296 295 295 296 297 297 297 295 293 293 292 292 291
Wind_Speed
22 22 24 24 23 24 6 3 2 3 3 5 1 0 4 6 7 2 6 4 5 5 3 5 4 7 4 2 1 6 2 1 3 8 6 4 3 3 5 4 6 5 4 9
20 19 19 25 22 21 3 3 4 4 4 3 3 5 5 4 4 7 3 5 4 1 3 6 5 5 6 1 4 4 1 1 4 4 2 4 0 4 4 2 2 6 4 9
16 18 18 20 21 20 1 3 5 5 5 1 3 5 5 5 6 7 3 6 4 3 7 8 6 6 6 1 5 8 2 2 5 5 2 2 3 7 8 3 5 5 11 12
17 17 18 18 19 19 2 4 1 2 5 3 5 4 5 9 6 3 1 5 4 8 8 13 14 12 7 8 6 0 5 6 5 8 8 9 10 14 13 15 10 8 3 9
17 17 17 16 15 15 4 2 3 4 4 5 4 4 4 7 7 6 11 7 15 14 14 15 22 18 14 12 4 6 6 4 2 8 10 11 14 16 17 18 18 16 12 22
16 16 17 15 13 5 2 1 2 2 4 4 2 4 4 9 15 9 9 14 17 15 16 12 19 20 22 15 7 7 6 5 3 5 4 5 10 15 18 16 13 12 14 12
17 17 16 15 13 1 1 1 1 2 5 3 4 8 13 17 10 15 16 14 9 10 15 18 15 13 15 15 17 11 6 6 4 4 2 5 6 9 7 16 16 18 11 14
18 17 17 15 14 8 2 2 2 2 4 5 12 7 7 10 10 14 13 15 13 7 6 6 7 3 3 3 3 14 15 6 3 4 5 10 11 1 4 5 7 11 18 16
18 17 17 16 14 12 1 3 3 2 4 5 4 9 8 6 6 5 8 11 5 5 3 3 4 3 4 3 4 4 10 11 7 3 3 5 1 2 8 4 8 4 9 13
19 18 17 17 15 14 6 2 5 2 4 5 4 7 4 4 4 5 7 7 6 3 4 3 3 4 6 4 5 3 1 5 12 8 5 7 1 4 8 7 3 7 4 7
19 19 18 17 14 13 6 3 7 4 4 8 9 4 6 6 4 3 5 7 4 4 6 4 4 3 4 5 3 3 2 2 4 4 6 9 10 9 7 3 7 8 7 8
19 19 18 18 17 14 8 3 3 4 4 8 13 19 23 22 18 5 3 3 3 2 2 2 3 3 4 5 4 1 2 2 2 3 3 6 14 15 18 16 15 7 8 2
19 19 18 17 17 16 9 3 3 2 4 8 3 7 7 9 19 17 5 3 3 2 2 2 2 5 3 4 3 4 3 5 3 4 4 10 21 5 10 8 8 9 7 6
20 19 18 17 17 16 12 3 1 2 2 4 9 3 8 6 8 14 20 1 2 3 1 2 2 4 3 3 5 3 3 8 7 3 7 12 12 19 14 11 16 13 14 13
21 20 20 18 18 16 10 6 6 7 3 4 8 13 5 6 6 10 13 8 2 1 1 3 4 3 3 2 3 3 4 5 6 4 13 6 13 13 13 16 18 14 15 17
23 23 22 20 17 13 3 4 1 6 5 2 5 5 5 4 2 6 8 7 3 2 2 3 4 4 2 2 3 5 5 4 2 4 3 7 8 11 12 12 13 16 13 15
25 24 23 21 15 4 4 3 1 5 4 3 4 5 5 2 2 1 2 2 2 3 2 3 3 3 1 1 2 5 7 7 7 9 6 5 7 5 8 8 10 8 9 12
25 26 23 19 13 7 4 6 13 6 3 3 2 5 6 3 2 1 2 2 2 4 2 1 3 4 0 2 5 5 5 6 8 7 6 3 5 7 9 7 7 9 10 11
27 22 10 2 2 3 2 6 8 7 2 3 3 1 5 4 2 1 1 1 2 0 2 3 2 2 4 6 3 2 4 4 3 4 8 8 9 11 10 10 10 10 8 8
20 5 2 2 1 13 8 5 2 4 5 4 4 3 4 1 1 2 1 1 2 2 4 1 2 4 4 5 5 2 2 5 4 6 5 7 7 8 8 8 7 8 9 8
6 5 3 4 12 2 2 2 3 2 3 3 3 5 4 2 3 4 2 2 1 2 4 0 3 4 4 4 4 4 1 6 6 5 4 5 5 5 4 8 10 10 11 11
5 7 7 4 2 2 3 4 3 5 5 2 3 3 5 4 2 2 1 2 2 4 2 1 3 5 3 5 4 1 6 8 8 6 5 6 8 6 6 7 8 10 11 11
2 3 4 3 2 2 5 5 3 2 1 2 3 3 3 2 2 1 2 2 4 2 3 4 6 3 2 5 4 5 5 7 8 7 7 7 7 7 6 8 7 9 11 9
3 3 5 5 4 5 5 3 2 2 4 5 5 3 3 2 3 2 3 3 3 3 1 7 4 4 4 5 5 5 5 6 8 7 7 8 8 6 7 6 5 8 10 10
3 4 6 6 4 3 3 2 3 3 3 2 4 3 2 1 1 2 1 3 3 6 7 5 5 4 5 5 4 5 2 5 6 6 7 7 7 7 7 5 5 7 8 10
3 5 5 4 2 3 2 2 3 2 3 2 1 2 2 4 3 3 6 5 7 6 5 4 3 3 5 4 6 6 5 4 5 6 7 7 8 8 7 7 7 7 8 11
4 5 4 5 4 5 4 2 4 1 2 3 1 3 6 2 1 3 3 5 5 4 4 3 4 6 7 6 6 7 6 5 6 6 7 6 6 8 9 10 5 7 8 8
Wind_Direction
349 349 349 346 348 345 12 4 41 314 22 45 72 29 293 283 275 309 280 251 255 249 312 275 263 241 231 162 357 315 19 147 264 246 264 6 352 270 199 187 253 258 113 288
346 346 345 348 347 356 325 3 291 326 70 78 323 304 283 268 296 305 325 285 251 263 255 283 258 290 303 245 179 220 186 279 312 303 9 39 314 289 234 204 123 220 234 253
339 344 342 339 340 351 342 7 358 328 39 47 107 318 288 280 257 278 327 265 263 345 283 238 278 276 296 282 217 248 173 213 217 228 274 116 293 293 295 239 229 243 241 296
340 340 339 340 339 346 81 25 318 202 306 316 315 253 267 287 314 237 268 281 259 305 292 298 264 257 265 260 269 4 173 223 229 254 279 284 263 267 268 267 256 250 314 261
339 339 333 342 344 346 69 49 27 352 287 280 264 261 255 294 310 304 307 259 301 297 288 278 290 280 264 266 248 179 188 233 205 288 272 252 264 259 256 252 254 256 254 273
335 335 332 338 347 26 58 304 337 127 269 294 338 250 259 294 316 288 257 295 298 294 289 285 275 267 264 248 218 203 192 191 148 252 244 322 275 250 254 246 226 217 226 257
334 332 329 331 336 158 184 193 196 264 272 257 235 290 288 287 285 281 295 288 275 265 310 297 270 255 246 246 238 202 181 170 175 250 333 247 245 312 285 248 221 215 206 232
332 331 328 325 327 337 194 163 183 252 272 242 294 295 279 294 283 280 272 281 275 331 320 315 321 340 244 210 236 213 206 170 203 213 199 287 295 85 4 333 263 217 229 246
328 329 327 326 322 314 219 201 171 186 282 244 266 304 283 283 298 294 296 306 297 9 16 332 314 315 292 321 316 69 208 205 199 172 239 252 172 84 7 325 268 177 219 225
323 326 324 320 320 315 306 228 179 195 256 257 191 278 264 300 286 279 298 335 335 28 354 340 319 295 330 312 312 339 176 177 213 209 243 281 110 10 4 219 250 310 269 250
321 319 319 321 313 311 315 268 184 187 244 271 251 233 225 273 212 257 312 330 337 346 359 337 325 292 312 287 285 340 306 273 184 204 219 250 19 325 203 356 314 305 290 259
317 314 316 314 321 312 301 266 192 215 235 264 284 268 263 247 246 311 274 270 280 226 321 324 299 295 285 303 326 275 314 257 296 237 279 316 279 234 264 277 274 303 302 320
319 316 312 311 308 309 311 275 191 197 265 276 310 251 260 218 224 215 217 235 215 217 237 265 285 281 299 314 315 295 257 259 245 292 237 275 297 329 187 208 58 32 22 66
317 314 311 307 303 304 305 257 199 208 290 281 280 288 275 207 184 190 211 218 107 114 219 245 254 268 221 283 286 283 282 306 306 278 281 297 346 28 20 42 43 33 31 36
317 314 309 307 305 303 293 258 230 202 195 279 291 305 255 281 204 190 201 204 184 203 241 240 240 265 282 290 293 307 334 327 357 348 348 12 3 20 357 35 29 20 34 24
314 311 306 303 300 299 289 299 191 193 173 260 289 282 292 323 101 133 168 188 176 211 223 246 276 252 263 346 288 279 323 336 329 308 8 23 336 8 23 34 12 19 15 32
312 305 300 296 284 251 216 209 19 150 128 241 274 301 282 317 102 92 142 157 195 200 242 246 254 284 240 140 265 296 335 357 18 15 28 14 10 10 31 43 37 19 11 34
311 306 302 295 257 222 242 240 233 169 213 236 272 276 328 204 294 281 166 199 196 200 247 205 239 310 229 266 256 301 342 33 43 18 22 3 33 47 48 33 37 42 36 34
319 314 311 98 95 166 225 305 188 187 269 289 209 247 267 332 297 97 245 242 249 21 237 238 128 296 235 226 232 334 22 33 46 27 35 25 33 45 52 55 43 48 50 42
328 4 337 164 30 317 306 191 182 158 208 219 242 132 268 44 343 294 125 302 269 266 246 257 133 257 260 244 229 236 3 42 84 75 33 33 28 49 46 51 56 52 44 38
5 4 337 308 309 318 229 223 199 178 242 221 245 219 239 269 187 242 190 201 280 355 268 236 307 289 240 224 219 238 142 117 96 104 103 99 87 66 49 42 39 39 39 41
258 279 286 274 297 266 225 206 183 206 233 195 203 234 204 263 174 153 225 170 37 255 329 5 278 251 228 162 174 283 125 134 109 89 71 77 82 73 61 48 45 41 36 38
306 205 236 216 211 321 218 216 225 206 147 194 186 297 221 215 195 217 93 117 230 15 31 245 236 252 251 165 134 122 126 131 118 103 97 90 81 71 77 64 43 52 46 42
291 274 262 216 222 238 213 199 170 101 217 266 279 241 226 165 177 188 161 215 73 37 279 241 253 243 215 162 145 131 143 165 139 131 113 105 96 77 71 78 62 65 49 34
252 239 240 237 233 258 258 294 285 284 292 318 322 264 201 178 8 305 93 139 243 202 230 233 249 224 178 154 123 112 170 162 145 139 122 115 105 99 89 69 68 67 69 57
238 243 259 265 331 297 345 311 271 284 293 310 205 231 174 220 189 190 222 147 219 245 226 233 265 193 178 164 149 151 166 195 170 147 136 132 131 122 111 94 80 66 63 63
241 250 227 251 252 243 242 220 251 263 1 274 201 212 223 105 225 243 200 204 225 235 270 253 209 205 202 189 174 145 148 158 162 135 132 126 118 114 108 100 84 80 66 68